This is the latest recevied weather packets stored in our database for station/object KA1JKB. If no packets are shown the sender has not sent any weather packets the latest 10 day(s).
| Time | Temp. | Humidity | Pressure | Rain* | Wind** | Luminosity | Snow |
|---|---|---|---|---|---|---|---|
| 1787690853 | 26.67° C | 62% | 1016.1 hPa | 0 mm | - | 521 W/m² | - |
| 1787690553 | 26.11° C | 65% | 1015.9 hPa | 0 mm | - | 525 W/m² | - |
| 1787690248 | 25.56° C | 67% | 1016.1 hPa | 0 mm | - | 562 W/m² | - |
| 1787689946 | 25.56° C | 65% | 1016 hPa | 0 mm | - | 539 W/m² | - |
| 1787689640 | 25.56° C | 60% | 1016.1 hPa | 0 mm | - | 323 W/m² | - |
| 1787689336 | 26.11° C | 61% | 1016.1 hPa | 0 mm | - | 581 W/m² | - |
| 1787689035 | 25.56° C | 64% | 1016.3 hPa | 0 mm | - | 272 W/m² | - |
| 1787688731 | 25° C | 64% | 1016.1 hPa | 0 mm | - | 621 W/m² | - |
| 1787688426 | 25° C | 64% | 1016.5 hPa | 0 mm | - | 208 W/m² | - |
| 1787688121 | 25° C | 65% | 1016.3 hPa | 0 mm | - | 264 W/m² | - |
| 1787687817 | 25° C | 63% | 1016.3 hPa | 0 mm | - | 242 W/m² | - |
| 1787687517 | 25° C | 65% | 1016.1 hPa | 0 mm | - | 525 W/m² | - |
| 1787687213 | 25.56° C | 66% | 1016.7 hPa | 0 mm | - | 459 W/m² | - |
| 1787686908 | 25.56° C | 62% | 1016.8 hPa | 0 mm | - | 746 W/m² | - |
| 1787686605 | 25.56° C | 63% | 1016.6 hPa | 0 mm | - | 712 W/m² | - |
| 1787686299 | 26.11° C | 63% | 1016.9 hPa | 0 mm | - | 675 W/m² | - |
| 1787685995 | 25° C | 62% | 1016.8 hPa | 0 mm | - | 598 W/m² | - |
| 1787685691 | 25° C | 65% | 1016.6 hPa | 0 mm | - | 581 W/m² | - |
| 1787685390 | 25° C | 65% | 1016.7 hPa | 0 mm | - | 566 W/m² | - |
| 1787685085 | 25° C | 65% | 1016.9 hPa | 0 mm | - | 675 W/m² | - |
| 1787684781 | 25° C | 62% | 1016.9 hPa | 0 mm | - | 629 W/m² | - |
| 1787684480 | 25° C | 63% | 1017.1 hPa | 0 mm | - | 613 W/m² | - |
| 1787684175 | 25.56° C | 62% | 1017.3 hPa | 0 mm | - | 643 W/m² | - |
| 1787683874 | 25.56° C | 61% | 1017 hPa | 0 mm | - | 677 W/m² | - |
| 1787683570 | 25° C | 62% | 1017.2 hPa | 0 mm | - | 718 W/m² | - |
* Rain latest hour (hover to see other rain measurements)
** Current wind speed in m/s (hover to see current wind gust speed)